Regional Weather Roundup
Issued by NWS

Home | Current Version | Previous Version | Graphics & Text | Print | Product List | Glossary On
Versions: 1 2 3 4 5 6 7 8 9 10 11 12 13 14 15 16 17 18 19 20 21 22 23 24 25 26 27
000
ASUS45 KTFX 211110
RWRMT
MONTANA REGIONAL WEATHER ROUNDUP
NATIONAL WEATHER SERVICE GREAT FALLS MT
400 AM MST TUE FEB 21 2017

NOTE: "FAIR" INDICATES FEW OR NO CLOUDS BELOW 12000 FEET WITH NO
SIGNIFICANT WEATHER AND/OR OBSTRUCTIONS TO VISIBILITY.

MTZ001>007-043-211200-
WEST OF THE DIVIDE

CITY           SKY/WX    TMP DP  RH WIND       PRES   REMARKS
KALISPELL      CLOUDY    30  27  88 CALM      29.68S
MISSOULA       CLOUDY    32  32 100 E3        29.71S FOG
BUTTE          CLOUDY    35  30  82 CALM      29.68F
MULLAN PASS    LGT SNOW  26  26 100 S5        29.62S FOG
ANACONDA         N/A     37  32  81 S5        29.69F
DEER LODGE       N/A     34  30  86 CALM      29.72S
EUREKA           N/A     37  30  75 SE5       29.68F
HAMILTON         N/A     36  34  93 CALM      29.69F
LIBBY            N/A     28  28 100 CALM      29.68S
PLAINS           N/A     30  24  78 CALM      29.72
RONAN            N/A     38  31  76 CALM      29.73F
$$

MTZ008-052>055-211200-
SOUTHWEST MONTANA

CITY           SKY/WX    TMP DP  RH WIND       PRES   REMARKS
BOZEMAN        CLOUDY    35  31  85 S7        29.71F WCI  29
DILLON         CLOUDY    33  29  85 S8        29.71S WCI  26
W YELLOWSTONE  LGT SNOW  32  32 100 SW15      29.85S VSB 3/4 WCI  22
ENNIS          MOCLDY    43  30  61 S32G44    29.76F
$$

MTZ009-010-012-014-046-048-049-054-211200-
EAST SLOPES AND CENTRAL MONTANA

CITY           SKY/WX    TMP DP  RH WIND       PRES   REMARKS
CUT BANK       PTCLDY    32  23  69 NW7       29.60R WCI  26
GREAT FALLS    CLOUDY    40  28  62 CALM      29.65R
MALMSTROM AFB  CLOUDY    35  29  81 CALM      29.65S
HELENA         CLOUDY    36  31  82 SW6       29.69F WCI  31
AUGUSTA        MOCLDY    37  29  72 SW13      29.62S WCI  29
BOWMANS CRNR     N/A     35  29  78 SW12      29.63S WCI  27
CHOTEAU          N/A     41  27  56 SE8G16    29.62S
CONRAD           N/A     34  27  76 SW3       29.68R
POWER          MOCLDY    37  29  73 SW8       29.63F WCI  31
RAYNESFORD     CLOUDY    33  28  81 CALM      29.65F
ULM            CLOUDY    37  29  73 MISG      29.65F
$$

MTZ011-013-016-021-045-047-050-051-211200-
NORTH CENTRAL MONTANA

CITY           SKY/WX    TMP DP  RH WIND       PRES   REMARKS
HAVRE          CLEAR     39  32  76 SW18      29.62F WCI  30
LEWISTOWN      CLOUDY    33  26  75 S8        29.68S WCI  26
N BAR RANCH      N/A     36  23  60 CALM      29.71R
CHINOOK          N/A     37  30  75 W7        29.62S
DENTON         MOCLDY    35  29  80 SE9G21    29.63F WCI  27
FORT BENTON      N/A     37  30  75 N6        29.66S
GEYSER         MOCLDY    39  26  60 SE3       29.65S
GRASS RANGE    MOCLDY    36  28  74 E7        29.64R WCI  30
JUDITH GAP     MOCLDY    44  28  53 SW10G25   29.67F
ROY            MOCLDY    38  30  71 MISG      29.66R
STANFORD       MOCLDY    34  28  79 E3        29.66S
WINIFRED         N/A     41  28  61 W5        29.66S
$$

MTZ017>020-022>027-061-062-211200-
NORTHEAST MONTANA

CITY           SKY/WX    TMP DP  RH WIND       PRES   REMARKS
GLASGOW        CLOUDY    38  33  82 S10       29.65R WCI  31
JORDAN           N/A     34  31  88 W8        29.67R WCI  27
SIDNEY         PTCLDY    27  25  92 S5        29.66S
WOLF POINT     PTCLDY    28  25  88 SW3       29.66R
PLENTYWOOD       N/A     36  32  87 CALM      29.63S
POPLAR           N/A     32  30  93 N3        29.67R
SCOBEY           N/A     31  24  75 CALM      29.63
$$

MTZ028>42-056>058-211200-
SOUTHCENTRAL AND SOUTHEAST MONTANA

CITY           SKY/WX    TMP DP  RH WIND       PRES   REMARKS
BAKER          PTCLDY    43  29  57 SW12      29.71R
BILLINGS       MOCLDY    45  31  58 SW9       29.68F
LIVINGSTON     CLOUDY    47  30  51 SW21G29   29.69F
MILES CITY     CLOUDY    40  30  67 SE7       29.70R
BIG TIMBER     CLOUDY    46  30  53 W17G23    29.71S
EKALAKA          N/A     48  26  42 SW1       29.74S
FORSYTH          N/A     46  30  53 W3        29.69S
HARLOWTON      MOCLDY    41  30  66 W12       29.67F
LAUREL           N/A     46  28  49 SW7       29.71F
$$

REGIONAL REPORTS...DAKOTAS

CITY           SKY/WX    TMP DP  RH WIND       PRES   REMARKS
WILLISTON      CLEAR     32  27  81 SW8       29.65R WCI  25
MINOT          CLEAR     32  29  88 SE5       29.62F
DICKINSON      PTCLDY    37  28  70 W10       29.65R WCI  30
BEACH            N/A    N/A N/A N/A MISG        N/A
CROSBY           N/A     30  30 100 NW3       29.66R
TIOGA            N/A     32  32 100 SW5       29.65S
WATFORD CITY     N/A     28  27  93 SW6       29.66S WCI  22
BISMARCK       CLOUDY    35  29  78 CALM      29.66F
GRAND FORKS    CLOUDY    34  29  82 SW8       29.75R WCI  27
FARGO          CLOUDY    34  32  92 SE6       29.76F WCI  29
BUFFALO SD       N/A     47  33  58 W15       29.66F
RAPID CITY     PTCLDY    50  30  46 S9        29.78S
$$

REGIONAL REPORTS...WYOMING/IDAHO/WASHINGTON

CITY           SKY/WX    TMP DP  RH WIND       PRES   REMARKS
GILLETTE       CLOUDY    46  32  58 SW33G40   29.73F
SHERIDAN       PTCLDY    49  28  44 SE9G24    29.73R
BUFFALO WY     CLOUDY    48  28  46 N7        29.76F
CODY           CLOUDY    40  33  76 SE10G16   29.78S
YELLOWSTONE LA   N/A     30  30 100 CALM      29.87S
IDAHO FALLS    CLOUDY    36  36 100 S6        29.89S WCI  31
SALMON         CLOUDY    39  36  87 SE6       29.73S
BOISE          PTCLDY    45  38  76 SE9       29.81R
SPOKANE        FOG       32  32 100 NE7       29.66F VSB 1/4 WCI  26
$$

REGIONAL REPORTS...ALBERTA

CITY           SKY/WX    TMP DP  RH WIND       PRES   REMARKS
EDMONTON       CLOUDY    32  28  86 S5        29.65S
CALGARY        FOG       27  25  93 NW12      29.59  VSB 1/2 WCI  16
LETHBRIDGE     LGT SNOW  30 N/A N/A SW6       29.61S VSB 3/4 WCI  24
MEDICINE HAT   CLOUDY    32  32 100 NW7       29.61R FOG     WCI  26
CARDSTON         N/A     27  27 100 E3          N/A
MILK RIVER       N/A     28  27  93 W9          N/A  WCI  20
$$

REGIONAL REPORTS...SASKATCHEWAN

CITY           SKY/WX    TMP DP  RH WIND       PRES   REMARKS
SWIFT CURRENT  MOCLDY    30  30 100 E12       29.56F FOG     WCI  21
REGINA         LGT RAIN  34  32  93 NE9       29.62F WCI  26
SASKATOON      CLOUDY    32  27  80 N3        29.69R
VAL MARIE        N/A     27  25  93 S3          N/A
ROCKGLEN         N/A     30  27  86 SW10        N/A  WCI  21
ASSINIBOIA       N/A     30  28  93 NW1         N/A
$$




USA.gov is the U.S. government's official web portal to all federal, state and local government web resources and services.